Location: Caltech
(34.1382°N, 118.1253°W)
Time: 12:15:12
(UTC-07:00)

JAS-2 - Visible Passes

Search period start: 29 May 2016 00:00
Search period end: 08 June 2016 00:00
Orbit: 801 x 1321 km, 98.6° (Epoch: 29 May)

Date Brightness Start Highest point End Pass type
(mag) Time Alt. Az. Time Alt. Az. Time Alt. Az.
29 May 10.5 01:10:53 10° NNE 01:17:13 43° E 01:17:13 43° E visible
29 May 10.8 02:56:15 10° N 03:02:22 30° WNW 03:03:42 28° W visible
30 May 11.7 00:18:22 10° NE 00:21:29 15° E 00:21:29 15° E visible
30 May 9.6 02:00:38 10° N 02:07:52 77° WNW 02:07:58 77° W visible
30 May 11.8 03:49:03 10° NW 03:51:28 12° NW 03:53:48 10° WNW visible
31 May 10.6 01:06:09 10° NNE 01:12:13 39° E 01:12:13 39° E visible
31 May 10.7 02:51:21 10° N 02:57:30 32° WNW 02:58:42 30° W visible
01 Jun 11.8 00:14:04 10° ENE 00:16:28 13° E 00:16:28 13° E visible
01 Jun 9.6 01:55:48 10° N 02:02:57 82° WNW 02:02:57 82° WNW visible
01 Jun 11.7 03:43:54 10° NNW 03:46:38 13° WNW 03:49:16 10° W visible
02 Jun 10.7 01:01:25 10° NNE 01:07:11 36° E 01:07:11 36° E visible
02 Jun 10.6 02:46:28 10° N 02:52:37 33° WNW 02:53:40 32° W visible
03 Jun 11.9 00:10:02 10° ENE 00:11:26 11° E 00:11:26 11° E visible
03 Jun 9.6 01:50:59 10° NNE 01:57:55 86° NNW 01:57:55 86° NNW visible
03 Jun 11.6 03:38:48 10° NNW 03:41:47 13° WNW 03:44:24 11° W visible
04 Jun 10.8 00:56:42 10° NNE 01:02:09 32° E 01:02:09 32° E visible
04 Jun 10.5 02:41:34 10° N 02:47:44 35° WNW 02:48:38 34° W visible
05 Jun 9.5 01:46:10 10° NNE 01:52:52 84° NE 01:52:52 84° NE visible
05 Jun 11.5 03:33:43 10° NNW 03:36:56 14° WNW 03:39:21 11° W visible
06 Jun 10.9 00:52:00 10° NE 00:57:06 29° E 00:57:06 29° E visible
06 Jun 10.4 02:36:40 10° N 02:42:50 37° WNW 02:43:34 36° W visible
07 Jun 9.6 01:41:20 10° NNE 01:47:48 78° ENE 01:47:48 78° ENE visible
07 Jun 11.5 03:28:39 10° NNW 03:32:04 15° WNW 03:34:17 12° W visible
